AFL1700 UUEE-UHWW

Flight info

Callsign AFL1700
Flight time N/A
Altitude 37000
Route RILPO3J RILPO T753 TUNOB T791 MOVUN P149 SONIB N174 KEDOR T541 OKONI/K0904F390 T541 LEBNA L168 IVADA DCT HAB/K0911F400 DCT ARDEL B355 BG/K0835F220 G714 DAGES DAGES2S
Aircraft A359/H-SDE2E3GHIJ1J3J4J5LM1ORWXY/LB1D1

Departure

Time N/A
Airport Sheremetyevo International Airport (UUEE)

Arrival

Time 2026-04-26 16:39
Airport Vladivostok International Airport (UHWW)
Time Latitude Longitude Altitude Speed Heading
2026-04-26 11:40 64.64125 96.37800 37022 ft 534 kts 99°
2026-04-26 11:40 64.62896 96.54901 37033 ft 534 kts 99°
2026-04-26 11:42 64.57794 97.23012 37062 ft 534 kts 100°
2026-04-26 11:43 64.56471 97.39994 37060 ft 534 kts 100°
2026-04-26 11:43 64.55126 97.56977 37069 ft 534 kts 101°
2026-04-26 11:44 64.53761 97.73939 37069 ft 534 kts 101°
2026-04-26 11:44 64.52379 97.90869 37070 ft 534 kts 101°
2026-04-26 11:45 64.50976 98.07795 37079 ft 534 kts 101°
2026-04-26 11:45 64.49556 98.24674 37067 ft 532 kts 101°
2026-04-26 11:46 64.48118 98.41531 37097 ft 533 kts 101°
2026-04-26 11:46 64.46661 98.58356 37093 ft 533 kts 101°
2026-04-26 11:47 64.45185 98.75173 37099 ft 533 kts 101°
2026-04-26 11:47 64.43687 98.91975 37095 ft 532 kts 101°
2026-04-26 11:48 64.42173 99.08745 37107 ft 532 kts 101°
2026-04-26 11:48 64.40641 99.25495 37113 ft 532 kts 101°
2026-04-26 11:49 64.39089 99.42225 37113 ft 532 kts 102°
2026-04-26 11:49 64.37518 99.58930 37113 ft 532 kts 102°
2026-04-26 11:50 64.35928 99.75619 37123 ft 531 kts 102°
2026-04-26 11:50 64.34324 99.92238 37128 ft 531 kts 102°
2026-04-26 11:51 64.32702 100.08833 37125 ft 531 kts 102°
2026-04-26 11:51 64.31071 100.25313 37117 ft 530 kts 102°
2026-04-26 11:52 64.29668 100.39177 37160 ft 530 kts 103°
2026-04-26 11:52 64.26749 100.57716 37149 ft 531 kts 111°
2026-04-26 11:53 64.23932 100.73423 37146 ft 532 kts 112°
2026-04-26 11:54 64.19631 100.96918 37156 ft 532 kts 112°
2026-04-26 11:54 64.16759 101.12544 37171 ft 532 kts 112°
2026-04-26 11:55 64.13876 101.28153 37164 ft 531 kts 112°
2026-04-26 11:55 64.10980 101.43711 37294 ft 531 kts 112°
2026-04-26 11:55 64.09532 101.51449 37552 ft 528 kts 113°
2026-04-26 11:56 64.08085 101.59150 37788 ft 527 kts 113°
2026-04-26 11:56 64.06635 101.66839 37952 ft 526 kts 113°
2026-04-26 11:56 64.05184 101.74509 38106 ft 526 kts 113°
2026-04-26 11:56 64.03727 101.82178 38228 ft 526 kts 113°
2026-04-26 11:57 64.02267 101.89833 38359 ft 527 kts 114°
2026-04-26 11:57 63.99326 102.05158 38578 ft 528 kts 114°
2026-04-26 11:57 63.97850 102.12807 38708 ft 527 kts 114°
2026-04-26 11:58 63.96371 102.20437 38821 ft 527 kts 114°
2026-04-26 11:58 63.94886 102.28076 38922 ft 527 kts 114°
2026-04-26 11:58 63.93400 102.35686 39013 ft 527 kts 114°
2026-04-26 11:59 63.90417 102.50887 39172 ft 527 kts 114°
2026-04-26 11:59 63.87425 102.66013 39197 ft 531 kts 114°
2026-04-26 12:00 63.84384 102.81262 39198 ft 531 kts 115°
2026-04-26 12:00 63.81325 102.96496 39205 ft 531 kts 115°
2026-04-26 12:01 63.78255 103.11670 39204 ft 531 kts 115°
2026-04-26 12:01 63.75169 103.26813 39208 ft 530 kts 115°
2026-04-26 12:02 63.72069 103.41911 39227 ft 530 kts 115°
2026-04-26 12:02 63.68957 103.56962 39219 ft 529 kts 115°
2026-04-26 12:03 63.66340 103.69539 39218 ft 529 kts 115°
2026-04-26 12:03 63.63220 103.84427 39232 ft 529 kts 115°
2026-04-26 12:04 63.60065 103.99380 39263 ft 529 kts 115°
2026-04-26 12:04 63.56896 104.14303 39230 ft 529 kts 115°
2026-04-26 12:05 63.53716 104.29162 39233 ft 528 kts 115°
2026-04-26 12:05 63.50521 104.43989 39239 ft 528 kts 116°
2026-04-26 12:06 63.47311 104.58786 39238 ft 528 kts 116°
2026-04-26 12:06 63.44083 104.73560 39238 ft 529 kts 116°
2026-04-26 12:07 63.40843 104.88287 39245 ft 529 kts 116°
2026-04-26 12:07 63.37584 105.02997 39246 ft 529 kts 116°
2026-04-26 12:08 63.34313 105.17663 39244 ft 529 kts 116°
2026-04-26 12:08 63.31024 105.32303 39244 ft 529 kts 116°
2026-04-26 12:09 63.27721 105.46910 39252 ft 528 kts 116°
2026-04-26 12:09 63.24409 105.61455 39255 ft 528 kts 117°
2026-04-26 12:10 63.21084 105.75960 39252 ft 528 kts 117°
2026-04-26 12:10 63.17744 105.90434 39255 ft 528 kts 117°
2026-04-26 12:11 63.14388 106.04876 39260 ft 528 kts 117°
2026-04-26 12:11 63.11023 106.19260 39260 ft 527 kts 117°
2026-04-26 12:12 63.07669 106.33508 39258 ft 526 kts 117°
2026-04-26 12:12 63.04258 106.47905 39266 ft 526 kts 117°
2026-04-26 12:13 63.00856 106.62168 39270 ft 526 kts 117°
2026-04-26 12:13 62.97437 106.76405 39276 ft 526 kts 117°
2026-04-26 12:14 62.94010 106.90583 39273 ft 525 kts 117°
2026-04-26 12:14 62.90579 107.04720 39269 ft 525 kts 117°
2026-04-26 12:15 62.87230 107.18846 39275 ft 525 kts 117°
2026-04-26 12:15 62.83877 107.33038 39276 ft 525 kts 117°
2026-04-26 12:16 62.80497 107.47195 39276 ft 524 kts 117°
2026-04-26 12:16 62.77101 107.61289 39281 ft 524 kts 117°
2026-04-26 12:17 62.73685 107.75357 39282 ft 524 kts 117°
2026-04-26 12:17 62.70258 107.89384 39284 ft 524 kts 117°
2026-04-26 12:18 62.66814 108.03388 39296 ft 524 kts 118°
2026-04-26 12:18 62.63366 108.17320 39287 ft 523 kts 118°
2026-04-26 12:19 62.59909 108.31201 39287 ft 522 kts 118°
2026-04-26 12:19 62.56442 108.45038 39287 ft 522 kts 118°
2026-04-26 12:20 62.52962 108.58839 39286 ft 522 kts 118°
2026-04-26 12:20 62.49468 108.72610 39293 ft 522 kts 118°
2026-04-26 12:21 62.45962 108.86338 39286 ft 521 kts 118°
2026-04-26 12:21 62.42450 109.00005 39293 ft 521 kts 118°
2026-04-26 12:22 62.38922 109.13656 39291 ft 521 kts 118°
2026-04-26 12:22 62.35382 109.27270 39292 ft 521 kts 119°
2026-04-26 12:23 62.31829 109.40844 39297 ft 520 kts 119°
2026-04-26 12:23 62.28274 109.54349 39294 ft 519 kts 119°
2026-04-26 12:24 62.24703 109.67831 39295 ft 519 kts 119°
2026-04-26 12:24 62.21122 109.81270 39295 ft 519 kts 119°
2026-04-26 12:25 62.15727 110.01367 39291 ft 519 kts 120°
2026-04-26 12:25 62.12140 110.14630 39320 ft 519 kts 120°
2026-04-26 12:26 62.08518 110.27943 39306 ft 518 kts 120°
2026-04-26 12:26 62.04882 110.41226 39305 ft 518 kts 120°
2026-04-26 12:27 62.01234 110.54480 39290 ft 518 kts 120°
2026-04-26 12:27 61.97575 110.67692 39300 ft 518 kts 120°
2026-04-26 12:28 61.93911 110.80847 39299 ft 517 kts 120°
2026-04-26 12:28 61.90230 110.93989 39300 ft 518 kts 121°
2026-04-26 12:29 61.86542 111.07076 39303 ft 517 kts 121°
2026-04-26 12:30 61.80982 111.26664 39308 ft 517 kts 121°
2026-04-26 12:30 61.77262 111.39677 39299 ft 518 kts 121°
2026-04-26 12:31 61.71653 111.59165 39303 ft 517 kts 121°
2026-04-26 12:31 61.67903 111.72095 39289 ft 517 kts 121°
2026-04-26 12:32 61.64138 111.85003 39301 ft 517 kts 121°
2026-04-26 12:33 61.58482 112.04259 39300 ft 516 kts 121°
2026-04-26 12:33 61.54698 112.17054 39299 ft 516 kts 122°
2026-04-26 12:34 61.50899 112.29826 39294 ft 516 kts 122°
2026-04-26 12:34 61.47090 112.42562 39298 ft 516 kts 122°
2026-04-26 12:35 61.43270 112.55264 39291 ft 516 kts 122°
2026-04-26 12:35 61.39465 112.67846 39291 ft 516 kts 122°
2026-04-26 12:36 61.35624 112.80480 39293 ft 516 kts 122°
2026-04-26 12:36 61.31772 112.93079 39292 ft 516 kts 122°
2026-04-26 12:37 61.27906 113.05653 39294 ft 516 kts 122°
2026-04-26 12:37 61.24027 113.18201 39290 ft 516 kts 123°
2026-04-26 12:38 61.20141 113.30706 39290 ft 516 kts 123°
2026-04-26 12:38 61.16242 113.43181 39285 ft 516 kts 123°
2026-04-26 12:39 61.12332 113.55627 39294 ft 516 kts 123°
2026-04-26 12:39 61.08415 113.68027 39287 ft 515 kts 123°
2026-04-26 12:40 61.04487 113.80395 39285 ft 515 kts 123°
2026-04-26 12:40 61.00552 113.92721 39288 ft 515 kts 123°
2026-04-26 12:41 60.96605 114.05016 39285 ft 514 kts 123°
2026-04-26 12:41 60.92650 114.17272 39293 ft 513 kts 123°
2026-04-26 12:42 60.88692 114.29472 39291 ft 513 kts 123°
2026-04-26 12:42 60.84725 114.41637 39292 ft 513 kts 124°
2026-04-26 12:43 60.80748 114.53768 39292 ft 513 kts 124°
2026-04-26 12:43 60.76753 114.65891 39306 ft 513 kts 124°
2026-04-26 12:44 60.72783 114.77874 39293 ft 512 kts 124°
2026-04-26 12:44 60.68836 114.90087 39297 ft 512 kts 121°
2026-04-26 12:45 60.65182 115.02406 39307 ft 511 kts 121°
2026-04-26 12:45 60.61513 115.14796 39306 ft 511 kts 121°
2026-04-26 12:46 60.57793 115.27108 39312 ft 510 kts 122°
2026-04-26 12:46 60.54048 115.39344 39311 ft 509 kts 122°
2026-04-26 12:47 60.50292 115.51536 39315 ft 509 kts 122°
2026-04-26 12:47 60.46526 115.63702 39316 ft 509 kts 122°
2026-04-26 12:48 60.42749 115.75844 39321 ft 509 kts 122°
2026-04-26 12:48 60.38964 115.87951 39314 ft 508 kts 122°
2026-04-26 12:49 60.35817 115.97967 39311 ft 508 kts 122°
2026-04-26 12:49 60.32019 116.09994 39313 ft 508 kts 122°
2026-04-26 12:50 60.28207 116.21988 39319 ft 508 kts 123°
2026-04-26 12:50 60.24384 116.33955 39330 ft 508 kts 123°
2026-04-26 12:51 60.20556 116.45878 39322 ft 507 kts 123°
2026-04-26 12:51 60.16723 116.57758 39321 ft 506 kts 123°
2026-04-26 12:52 60.12884 116.69598 39321 ft 506 kts 123°
2026-04-26 12:52 60.09032 116.81418 39313 ft 506 kts 123°
2026-04-26 12:53 60.05171 116.93202 39317 ft 506 kts 123°
2026-04-26 12:53 60.01304 117.04947 39315 ft 506 kts 123°
2026-04-26 12:54 59.97427 117.16665 39313 ft 505 kts 123°
2026-04-26 12:54 59.93542 117.28347 39314 ft 505 kts 123°
2026-04-26 12:55 59.89642 117.40017 39323 ft 506 kts 124°
2026-04-26 12:55 59.85722 117.51621 39316 ft 505 kts 124°
2026-04-26 12:56 59.81767 117.63139 39313 ft 505 kts 124°
2026-04-26 12:56 59.77827 117.74556 39316 ft 504 kts 124°
2026-04-26 12:57 59.73852 117.86042 39315 ft 504 kts 124°
2026-04-26 12:57 59.69875 117.97491 39317 ft 504 kts 124°
2026-04-26 12:58 59.63909 118.14562 39328 ft 503 kts 125°
2026-04-26 12:58 59.59919 118.25907 39328 ft 503 kts 125°
2026-04-26 12:59 59.55920 118.37225 39327 ft 503 kts 125°
2026-04-26 12:59 59.51910 118.48518 39333 ft 502 kts 125°
2026-04-26 13:00 59.47897 118.59767 39333 ft 502 kts 125°
2026-04-26 13:00 59.43871 118.70996 39325 ft 502 kts 125°
2026-04-26 13:01 59.39836 118.82200 39322 ft 502 kts 126°
2026-04-26 13:01 59.35794 118.93367 39317 ft 502 kts 126°
2026-04-26 13:02 59.31742 119.04511 39312 ft 501 kts 126°
2026-04-26 13:02 59.27689 119.15604 39310 ft 501 kts 126°
2026-04-26 13:03 59.23626 119.26673 39308 ft 501 kts 126°
2026-04-26 13:03 59.19556 119.37710 39309 ft 501 kts 126°
2026-04-26 13:04 59.15476 119.48721 39317 ft 501 kts 126°
2026-04-26 13:04 59.11389 119.59700 39315 ft 500 kts 126°
2026-04-26 13:05 59.07325 119.70554 39320 ft 500 kts 127°
2026-04-26 13:05 59.03218 119.81439 39319 ft 500 kts 127°
2026-04-26 13:06 58.99102 119.92300 39316 ft 500 kts 127°
2026-04-26 13:06 58.94977 120.03139 39322 ft 499 kts 127°
2026-04-26 13:07 58.90845 120.13951 39323 ft 499 kts 127°
2026-04-26 13:07 58.86707 120.24729 39321 ft 499 kts 127°
2026-04-26 13:08 58.82563 120.35475 39323 ft 499 kts 127°
2026-04-26 13:08 58.78407 120.46202 39325 ft 499 kts 127°
2026-04-26 13:09 58.74246 120.56894 39311 ft 498 kts 128°
2026-04-26 13:09 58.70078 120.67555 39315 ft 498 kts 128°
2026-04-26 13:10 58.65892 120.78173 39319 ft 499 kts 129°
2026-04-26 13:10 58.61209 120.87967 39306 ft 498 kts 135°
2026-04-26 13:11 58.56344 120.97447 39316 ft 499 kts 136°
2026-04-26 13:11 58.51448 121.06855 39311 ft 499 kts 136°
2026-04-26 13:12 58.46549 121.16254 39309 ft 499 kts 136°
2026-04-26 13:12 58.41655 121.25634 39307 ft 499 kts 136°
2026-04-26 13:13 58.36754 121.34991 39308 ft 499 kts 136°
2026-04-26 13:13 58.31848 121.44319 39302 ft 498 kts 136°
2026-04-26 13:14 58.26940 121.53610 39293 ft 498 kts 136°
2026-04-26 13:14 58.22018 121.62890 39295 ft 498 kts 136°
2026-04-26 13:15 58.17126 121.72075 39297 ft 498 kts 136°
2026-04-26 13:15 58.12997 121.79798 39297 ft 498 kts 136°
2026-04-26 13:16 58.07255 121.90496 39288 ft 498 kts 136°
2026-04-26 13:16 58.02311 121.99665 39286 ft 498 kts 136°
2026-04-26 13:17 57.94880 122.13376 39290 ft 498 kts 136°
2026-04-26 13:18 57.87430 122.27040 39284 ft 499 kts 137°
2026-04-26 13:19 57.79963 122.40650 39277 ft 499 kts 137°
2026-04-26 13:19 57.74978 122.49692 39279 ft 499 kts 137°
2026-04-26 13:20 57.69984 122.58711 39282 ft 499 kts 137°
2026-04-26 13:20 57.64997 122.67683 39279 ft 497 kts 137°
2026-04-26 13:21 57.60007 122.76622 39277 ft 498 kts 137°
2026-04-26 13:21 57.55005 122.85550 39271 ft 498 kts 137°
2026-04-26 13:22 57.49995 122.94455 39271 ft 498 kts 137°
2026-04-26 13:22 57.45023 123.03257 39265 ft 497 kts 137°
2026-04-26 13:23 57.39978 123.12154 39256 ft 496 kts 137°
2026-04-26 13:23 57.34965 123.20959 39256 ft 497 kts 137°
2026-04-26 13:24 57.29945 123.29741 39255 ft 497 kts 138°
2026-04-26 13:24 57.24969 123.38411 39254 ft 496 kts 137°
2026-04-26 13:25 57.19919 123.47177 39246 ft 496 kts 138°
2026-04-26 13:25 57.14886 123.55882 39247 ft 496 kts 138°
2026-04-26 13:26 57.09850 123.64560 39240 ft 496 kts 138°
2026-04-26 13:26 57.04803 123.73221 39244 ft 496 kts 138°
2026-04-26 13:27 56.99751 123.81839 39239 ft 496 kts 138°
2026-04-26 13:27 56.94687 123.90432 39231 ft 496 kts 138°
2026-04-26 13:28 56.89617 123.99006 39235 ft 497 kts 138°
2026-04-26 13:28 56.84532 124.07575 39229 ft 497 kts 138°
2026-04-26 13:29 56.79441 124.16120 39235 ft 497 kts 138°
2026-04-26 13:29 56.74353 124.24631 39223 ft 497 kts 138°
2026-04-26 13:30 56.69253 124.33129 39227 ft 497 kts 138°
2026-04-26 13:30 56.64185 124.41542 39223 ft 497 kts 138°
2026-04-26 13:31 56.59046 124.50037 39222 ft 497 kts 139°
2026-04-26 13:31 56.53939 124.58449 39214 ft 496 kts 139°
2026-04-26 13:32 56.48861 124.66780 39212 ft 496 kts 139°
2026-04-26 13:32 56.43712 124.75196 39207 ft 496 kts 139°
2026-04-26 13:33 56.38626 124.83478 39205 ft 496 kts 139°
2026-04-26 13:33 56.33505 124.91794 39209 ft 496 kts 139°
2026-04-26 13:34 56.28365 125.00108 39201 ft 497 kts 139°
2026-04-26 13:34 56.23220 125.08398 39186 ft 496 kts 139°
2026-04-26 13:35 56.18070 125.16666 39191 ft 496 kts 139°
2026-04-26 13:35 56.13757 125.23568 39183 ft 496 kts 139°
2026-04-26 13:36 56.07757 125.33132 39180 ft 497 kts 139°
2026-04-26 13:36 56.03461 125.39960 39164 ft 497 kts 139°
2026-04-26 13:37 55.98290 125.48155 39166 ft 497 kts 139°
2026-04-26 13:37 55.93114 125.56328 39163 ft 497 kts 139°
2026-04-26 13:38 55.87935 125.64474 39153 ft 497 kts 139°
2026-04-26 13:38 55.82745 125.72609 39154 ft 497 kts 139°
2026-04-26 13:39 55.77549 125.80723 39156 ft 497 kts 139°
2026-04-26 13:39 55.72355 125.88804 39150 ft 497 kts 139°
2026-04-26 13:40 55.67151 125.96870 39141 ft 497 kts 139°
2026-04-26 13:40 55.61940 126.04917 39150 ft 497 kts 139°
2026-04-26 13:41 55.56728 126.12937 39140 ft 496 kts 139°
2026-04-26 13:41 55.51517 126.20927 39138 ft 496 kts 139°
2026-04-26 13:42 55.46295 126.28903 39139 ft 496 kts 139°
2026-04-26 13:42 55.41073 126.36850 39124 ft 496 kts 139°
2026-04-26 13:43 55.35851 126.44771 39119 ft 496 kts 139°
2026-04-26 13:43 55.30627 126.52667 39124 ft 496 kts 139°
2026-04-26 13:44 55.25386 126.60548 39127 ft 496 kts 140°
2026-04-26 13:44 55.20148 126.68381 39117 ft 495 kts 140°
2026-04-26 13:45 55.14905 126.76198 39105 ft 495 kts 140°
2026-04-26 13:45 55.09662 126.83991 39106 ft 495 kts 140°
2026-04-26 13:46 55.04409 126.91770 39100 ft 495 kts 140°
2026-04-26 13:46 54.99160 126.99516 39091 ft 494 kts 140°
2026-04-26 13:47 54.93908 127.07239 39091 ft 494 kts 140°
2026-04-26 13:47 54.88683 127.14895 39082 ft 495 kts 140°
2026-04-26 13:48 54.83417 127.22584 39084 ft 495 kts 140°
2026-04-26 13:48 54.78167 127.30289 39080 ft 494 kts 139°
2026-04-26 13:49 54.73025 127.38165 39075 ft 493 kts 138°
2026-04-26 13:49 54.67907 127.46042 39075 ft 493 kts 138°
2026-04-26 13:50 54.62764 127.53881 39071 ft 493 kts 138°
2026-04-26 13:50 54.57608 127.61677 39073 ft 492 kts 139°
2026-04-26 13:51 54.52461 127.69424 39072 ft 491 kts 139°
2026-04-26 13:51 54.47311 127.77150 39067 ft 491 kts 139°
2026-04-26 13:52 54.42156 127.84859 39064 ft 491 kts 139°
2026-04-26 13:52 54.37000 127.92543 39068 ft 491 kts 139°
2026-04-26 13:53 54.31844 128.00201 39064 ft 490 kts 139°
2026-04-26 13:53 54.26685 128.07837 39061 ft 490 kts 139°
2026-04-26 13:54 54.21519 128.15457 39061 ft 490 kts 139°
2026-04-26 13:54 54.16350 128.23055 39069 ft 490 kts 139°
2026-04-26 13:55 54.09477 128.33119 39059 ft 489 kts 139°
2026-04-26 13:56 54.00861 128.45689 39073 ft 489 kts 139°
2026-04-26 13:56 53.95694 128.53197 39073 ft 489 kts 139°
2026-04-26 13:57 53.90526 128.60681 39072 ft 488 kts 139°
2026-04-26 13:57 53.85357 128.68143 39072 ft 488 kts 139°
2026-04-26 13:58 53.80182 128.75586 39078 ft 488 kts 139°
2026-04-26 13:58 53.75005 128.83008 39081 ft 488 kts 139°
2026-04-26 13:59 53.69858 128.90363 39080 ft 488 kts 139°
2026-04-26 13:59 53.64669 128.97753 39081 ft 488 kts 139°
2026-04-26 14:00 53.54279 129.12476 39083 ft 488 kts 139°
2026-04-26 14:01 53.49080 129.19810 39081 ft 488 kts 140°
2026-04-26 14:01 53.43874 129.27122 39080 ft 488 kts 140°
2026-04-26 14:02 53.38664 129.34414 39080 ft 488 kts 140°
2026-04-26 14:02 53.33451 129.41689 39078 ft 488 kts 140°
2026-04-26 14:03 53.28234 129.48946 39078 ft 487 kts 140°
2026-04-26 14:03 53.23021 129.56174 39075 ft 487 kts 140°
2026-04-26 14:04 53.17803 129.63386 39067 ft 487 kts 140°
2026-04-26 14:04 53.12587 129.70572 39067 ft 487 kts 140°
2026-04-26 14:05 53.07360 129.77749 39065 ft 487 kts 140°
2026-04-26 14:05 53.02129 129.84908 39064 ft 487 kts 140°
2026-04-26 14:06 52.96927 129.92004 39062 ft 487 kts 140°
2026-04-26 14:06 52.91651 129.99182 39053 ft 487 kts 141°
2026-04-26 14:07 52.86437 130.06241 39052 ft 487 kts 141°
2026-04-26 14:07 52.81185 130.13324 39053 ft 487 kts 141°
2026-04-26 14:08 52.75924 130.20401 39044 ft 488 kts 141°
2026-04-26 14:08 52.70654 130.27470 39049 ft 488 kts 141°
2026-04-26 14:09 52.65379 130.34521 39045 ft 488 kts 141°
2026-04-26 14:09 52.60099 130.41557 39043 ft 488 kts 141°
2026-04-26 14:10 52.54820 130.48568 39040 ft 488 kts 141°
2026-04-26 14:10 52.49533 130.55569 39045 ft 488 kts 141°
2026-04-26 14:11 52.41600 130.66030 39043 ft 488 kts 142°
2026-04-26 14:11 52.36301 130.72992 39042 ft 488 kts 142°
2026-04-26 14:12 52.31001 130.79931 39040 ft 488 kts 142°
2026-04-26 14:12 52.25694 130.86858 39039 ft 488 kts 142°
2026-04-26 14:13 52.17730 130.97213 39043 ft 488 kts 142°
2026-04-26 14:14 52.12416 131.04095 39042 ft 488 kts 142°
2026-04-26 14:14 52.07086 131.10978 39044 ft 489 kts 142°
2026-04-26 14:15 52.01748 131.17849 39046 ft 489 kts 143°
2026-04-26 14:15 51.96413 131.24686 39054 ft 488 kts 143°
2026-04-26 14:16 51.91083 131.31497 39055 ft 488 kts 143°
2026-04-26 14:16 51.85747 131.38297 39054 ft 488 kts 143°
2026-04-26 14:17 51.80446 131.45032 39055 ft 488 kts 143°
2026-04-26 14:17 51.75081 131.51830 39054 ft 486 kts 143°
2026-04-26 14:18 51.69764 131.58539 39049 ft 486 kts 143°
2026-04-26 14:18 51.64472 131.65197 39048 ft 486 kts 143°
2026-04-26 14:19 51.59141 131.71885 39045 ft 486 kts 143°
2026-04-26 14:19 51.53805 131.78559 39042 ft 486 kts 143°
2026-04-26 14:20 51.48463 131.85220 39043 ft 487 kts 143°
2026-04-26 14:20 51.43114 131.91869 39043 ft 486 kts 143°
2026-04-26 14:21 51.37765 131.98502 39042 ft 487 kts 144°
2026-04-26 14:21 51.32392 132.05140 39040 ft 488 kts 144°
2026-04-26 14:22 51.27021 132.11756 39035 ft 488 kts 144°
2026-04-26 14:22 51.21638 132.18367 39034 ft 488 kts 144°
2026-04-26 14:23 51.16231 132.24917 39035 ft 488 kts 146°
2026-04-26 14:23 51.11629 132.30115 39034 ft 489 kts 147°
2026-04-26 14:24 51.06044 132.36295 39032 ft 489 kts 147°
2026-04-26 14:24 51.00468 132.42501 39031 ft 489 kts 147°
2026-04-26 14:25 50.94906 132.48723 39032 ft 489 kts 147°
2026-04-26 14:25 50.89346 132.54939 39035 ft 489 kts 147°
2026-04-26 14:26 50.83781 132.61141 39036 ft 489 kts 147°
2026-04-26 14:26 50.78210 132.67329 39039 ft 489 kts 147°
2026-04-26 14:27 50.72631 132.73507 39038 ft 490 kts 147°
2026-04-26 14:27 50.67037 132.79682 39041 ft 490 kts 147°
2026-04-26 14:28 50.61446 132.85836 39043 ft 490 kts 147°
2026-04-26 14:28 50.55849 132.91979 39039 ft 490 kts 148°
2026-04-26 14:29 50.50285 132.98069 39039 ft 491 kts 148°
2026-04-26 14:29 50.44674 133.04190 39041 ft 491 kts 148°
2026-04-26 14:30 50.39059 133.10298 39042 ft 491 kts 148°
2026-04-26 14:30 50.33446 133.16387 39037 ft 491 kts 148°
2026-04-26 14:31 50.27825 133.22466 39040 ft 491 kts 148°
2026-04-26 14:31 50.22204 133.28527 39037 ft 491 kts 148°
2026-04-26 14:32 50.16581 133.34574 39037 ft 491 kts 148°
2026-04-26 14:32 50.10949 133.40614 39040 ft 492 kts 149°
2026-04-26 14:33 50.05303 133.46633 39037 ft 492 kts 149°
2026-04-26 14:33 49.99635 133.52587 39032 ft 492 kts 150°
2026-04-26 14:34 49.93965 133.58518 39036 ft 492 kts 150°
2026-04-26 14:34 49.88290 133.64449 39034 ft 492 kts 150°
2026-04-26 14:35 49.82616 133.70367 39036 ft 492 kts 150°
2026-04-26 14:35 49.76940 133.76272 39029 ft 492 kts 150°
2026-04-26 14:36 49.71261 133.82163 39017 ft 491 kts 150°
2026-04-26 14:36 49.65579 133.88040 39029 ft 491 kts 150°
2026-04-26 14:37 49.59910 133.93886 39028 ft 490 kts 150°
2026-04-26 14:37 49.54233 133.99724 39026 ft 491 kts 151°
2026-04-26 14:38 49.48550 134.05554 39022 ft 491 kts 151°
2026-04-26 14:38 49.42868 134.11372 39024 ft 491 kts 151°
2026-04-26 14:39 49.37182 134.17192 39022 ft 491 kts 151°
2026-04-26 14:39 49.31494 134.22998 39020 ft 491 kts 151°
2026-04-26 14:40 49.25807 134.28785 39013 ft 490 kts 151°
2026-04-26 14:40 49.20164 134.34511 39013 ft 490 kts 151°
2026-04-26 14:41 49.14478 134.40264 39012 ft 490 kts 151°
2026-04-26 14:41 49.08832 134.46100 38988 ft 492 kts 147°
2026-04-26 14:42 49.03623 134.52952 39002 ft 495 kts 143°
2026-04-26 14:42 48.98539 134.60028 39001 ft 495 kts 142°
2026-04-26 14:43 48.93475 134.67119 39001 ft 495 kts 142°
2026-04-26 14:43 48.88400 134.74180 38997 ft 495 kts 143°
2026-04-26 14:44 48.83299 134.81235 38998 ft 496 kts 143°
2026-04-26 14:44 48.78186 134.88281 38999 ft 497 kts 143°
2026-04-26 14:45 48.73067 134.95316 38975 ft 497 kts 143°
2026-04-26 14:45 48.67937 135.02345 38992 ft 498 kts 143°
2026-04-26 14:46 48.62794 135.09373 38993 ft 498 kts 143°
2026-04-26 14:46 48.57345 135.15670 38994 ft 488 kts 156°
2026-04-26 14:47 48.51094 135.19214 38978 ft 475 kts 175°
2026-04-26 14:47 48.44582 135.19612 38983 ft 467 kts 189°
2026-04-26 14:48 48.38131 135.18777 38978 ft 469 kts 191°
2026-04-26 14:48 48.31625 135.17802 38986 ft 471 kts 190°
2026-04-26 14:49 48.25093 135.16887 38978 ft 472 kts 190°
2026-04-26 14:49 48.18554 135.16025 38970 ft 471 kts 190°
2026-04-26 14:50 48.12033 135.15181 38970 ft 470 kts 190°
2026-04-26 14:50 48.05515 135.14338 38973 ft 470 kts 190°
2026-04-26 14:51 47.98976 135.13491 38968 ft 472 kts 190°
2026-04-26 14:51 47.92426 135.12644 38970 ft 473 kts 190°
2026-04-26 14:52 47.85883 135.11801 38968 ft 471 kts 190°
2026-04-26 14:52 47.79368 135.10965 38968 ft 470 kts 190°
2026-04-26 14:53 47.72855 135.10130 38968 ft 470 kts 191°
2026-04-26 14:53 47.66327 135.09293 39080 ft 471 kts 191°
2026-04-26 14:53 47.63065 135.08876 39211 ft 470 kts 191°
2026-04-26 14:54 47.59805 135.08462 39300 ft 470 kts 191°
2026-04-26 14:54 47.56550 135.08049 39452 ft 469 kts 191°
2026-04-26 14:54 47.53305 135.07638 39591 ft 468 kts 191°
2026-04-26 14:55 47.46804 135.06813 39715 ft 470 kts 191°
2026-04-26 14:55 47.40331 135.05992 39892 ft 470 kts 191°
2026-04-26 14:56 47.33802 135.05168 39965 ft 471 kts 191°
2026-04-26 14:56 47.27275 135.04347 39949 ft 470 kts 191°
2026-04-26 14:57 47.20764 135.03530 39970 ft 469 kts 191°
2026-04-26 14:57 47.14260 135.02714 39971 ft 469 kts 191°
2026-04-26 14:58 47.07751 135.01899 39971 ft 469 kts 191°
2026-04-26 14:58 47.01242 135.01087 39974 ft 469 kts 191°
2026-04-26 14:59 46.94734 135.00277 39976 ft 469 kts 191°
2026-04-26 14:59 46.88226 134.99468 39974 ft 469 kts 191°
2026-04-26 15:00 46.81718 134.98663 39975 ft 469 kts 191°
2026-04-26 15:00 46.75213 134.97810 39978 ft 469 kts 191°
2026-04-26 15:01 46.68719 134.96906 39970 ft 469 kts 191°
2026-04-26 15:01 46.62263 134.96014 39971 ft 469 kts 192°
2026-04-26 15:02 46.55776 134.95132 39975 ft 468 kts 192°
2026-04-26 15:02 46.49291 134.94256 39977 ft 468 kts 192°
2026-04-26 15:03 46.42806 134.93382 39972 ft 468 kts 192°
2026-04-26 15:03 46.36318 134.92509 39954 ft 468 kts 192°
2026-04-26 15:04 46.29845 134.91641 39978 ft 467 kts 192°
2026-04-26 15:04 46.23385 134.90777 39986 ft 466 kts 192°
2026-04-26 15:05 46.16927 134.89914 39983 ft 466 kts 192°
2026-04-26 15:05 46.10467 134.89053 39989 ft 467 kts 192°
2026-04-26 15:06 46.04002 134.88194 39980 ft 466 kts 192°
2026-04-26 15:06 45.97543 134.87338 39988 ft 466 kts 192°
2026-04-26 15:07 45.87825 134.86374 39982 ft 461 kts 184°
2026-04-26 15:07 45.81594 134.88236 39996 ft 467 kts 166°
2026-04-26 15:08 45.78669 134.90341 39975 ft 476 kts 155°
2026-04-26 15:08 45.76001 134.93223 39987 ft 486 kts 144°
2026-04-26 15:08 45.71835 135.00999 39996 ft 503 kts 123°
2026-04-26 15:09 45.70522 135.05679 39995 ft 511 kts 111°
2026-04-26 15:09 45.69830 135.10684 39994 ft 518 kts 99°
2026-04-26 15:09 45.69803 135.15849 39992 ft 522 kts 88°
2026-04-26 15:09 45.70461 135.20965 39995 ft 525 kts 76°
2026-04-26 15:10 45.71793 135.25822 39998 ft 525 kts 63°
2026-04-26 15:10 45.72388 135.27375 39995 ft 525 kts 59°
2026-04-26 15:10 45.75342 135.32809 39997 ft 522 kts 43°
2026-04-26 15:10 45.78130 135.36084 39989 ft 517 kts 31°
2026-04-26 15:11 45.81262 135.38538 39990 ft 510 kts 20°
2026-04-26 15:11 45.84608 135.40106 39989 ft 503 kts
2026-04-26 15:11 45.91471 135.41399 39999 ft 495 kts
2026-04-26 15:12 45.98320 135.41822 39985 ft 491 kts 354°
2026-04-26 15:12 46.04951 135.40167 40013 ft 479 kts 335°
2026-04-26 15:13 46.10622 135.35517 39986 ft 463 kts 315°
2026-04-26 15:13 46.12863 135.32279 39989 ft 451 kts 305°
2026-04-26 15:13 46.14643 135.28626 39989 ft 442 kts 296°
2026-04-26 15:14 46.16801 135.20501 39986 ft 430 kts 279°
2026-04-26 15:14 46.17079 135.11998 39985 ft 423 kts 263°
2026-04-26 15:15 46.15549 135.03861 39981 ft 422 kts 246°
2026-04-26 15:15 46.12365 134.96785 39977 ft 424 kts 231°
2026-04-26 15:16 46.10203 134.93881 39978 ft 428 kts 219°
2026-04-26 15:16 46.07739 134.91563 39987 ft 430 kts 215°
2026-04-26 15:16 46.02488 134.87387 39987 ft 434 kts 213°
2026-04-26 15:17 45.97995 134.83953 39986 ft 439 kts 213°
2026-04-26 15:17 45.91715 134.79075 39981 ft 444 kts 214°
2026-04-26 15:18 45.86265 134.74785 39989 ft 449 kts 214°
2026-04-26 15:18 45.80765 134.70450 39989 ft 452 kts 214°
2026-04-26 15:19 45.75255 134.66123 39990 ft 451 kts 214°
2026-04-26 15:19 45.69747 134.61811 39993 ft 452 kts 214°
2026-04-26 15:20 45.64229 134.57500 39994 ft 452 kts 214°
2026-04-26 15:20 45.58711 134.53199 39988 ft 452 kts 214°
2026-04-26 15:21 45.53205 134.48918 39987 ft 451 kts 214°
2026-04-26 15:21 45.47693 134.44640 39996 ft 451 kts 214°
2026-04-26 15:22 45.42179 134.40371 39995 ft 451 kts 214°
2026-04-26 15:22 45.36665 134.36111 39993 ft 451 kts 214°
2026-04-26 15:23 45.31141 134.31853 39996 ft 452 kts 214°
2026-04-26 15:23 45.25614 134.27603 39996 ft 452 kts 214°
2026-04-26 15:24 45.20119 134.23386 39996 ft 452 kts 214°
2026-04-26 15:24 45.14586 134.19150 39971 ft 452 kts 214°
2026-04-26 15:25 45.09966 134.15620 39993 ft 449 kts 214°
2026-04-26 15:25 45.03574 134.10748 39991 ft 449 kts 214°
2026-04-26 15:26 44.98077 134.06567 39996 ft 449 kts 214°
2026-04-26 15:26 44.92575 134.02391 40000 ft 449 kts 213°
2026-04-26 15:27 44.87071 133.98223 39996 ft 449 kts 213°
2026-04-26 15:27 44.81565 133.94062 40000 ft 449 kts 213°
2026-04-26 15:28 44.76056 133.89909 40002 ft 449 kts 213°
2026-04-26 15:28 44.70547 133.85765 39974 ft 449 kts 213°
2026-04-26 15:29 44.65049 133.81637 39996 ft 447 kts 214°
2026-04-26 15:30 44.54094 133.73442 39998 ft 446 kts 214°
2026-04-26 15:30 44.48626 133.69363 40002 ft 445 kts 214°
2026-04-26 15:31 44.40433 133.63268 40001 ft 445 kts 213°
2026-04-26 15:32 44.33117 133.57842 40001 ft 445 kts 213°
2026-04-26 15:32 44.26757 133.53138 40001 ft 445 kts 213°
2026-04-26 15:33 44.21294 133.49107 40001 ft 443 kts 214°
2026-04-26 15:33 44.15854 133.45102 39998 ft 442 kts 213°
2026-04-26 15:34 44.10414 133.41105 40001 ft 442 kts 213°
2026-04-26 15:34 44.04975 133.37116 40002 ft 442 kts 213°
2026-04-26 15:35 43.99534 133.33134 39995 ft 442 kts 213°
2026-04-26 15:35 43.94085 133.29155 40005 ft 443 kts 213°
2026-04-26 15:36 43.88925 133.24658 40006 ft 433 kts 226°
2026-04-26 15:36 43.85151 133.18261 39996 ft 429 kts 238°
2026-04-26 15:37 43.81756 133.11416 39999 ft 433 kts 238°
2026-04-26 15:37 43.78363 133.04521 40000 ft 433 kts 238°
2026-04-26 15:38 43.74970 132.97631 40008 ft 433 kts 238°
2026-04-26 15:38 43.71573 132.90744 40007 ft 433 kts 238°
2026-04-26 15:39 43.68173 132.83868 40008 ft 434 kts 238°
2026-04-26 15:39 43.66537 132.80403 39609 ft 429 kts 243°
2026-04-26 15:39 43.65696 132.77934 39134 ft 429 kts 250°
2026-04-26 15:40 43.64391 132.72706 38241 ft 430 kts 252°
2026-04-26 15:40 43.63480 132.68822 37951 ft 431 kts 252°
2026-04-26 15:40 43.62551 132.64892 37684 ft 430 kts 252°
2026-04-26 15:40 43.61617 132.60973 37413 ft 430 kts 252°
2026-04-26 15:41 43.60681 132.57066 37157 ft 429 kts 252°
2026-04-26 15:41 43.59742 132.53166 36876 ft 428 kts 251°
2026-04-26 15:41 43.58802 132.49276 36610 ft 427 kts 251°
2026-04-26 15:41 43.57863 132.45397 36370 ft 426 kts 251°
2026-04-26 15:42 43.56924 132.41525 36128 ft 425 kts 251°
2026-04-26 15:42 43.55986 132.37665 35877 ft 425 kts 251°
2026-04-26 15:42 43.55046 132.33807 35633 ft 423 kts 251°
2026-04-26 15:42 43.54122 132.30022 35511 ft 410 kts 251°
2026-04-26 15:43 43.53226 132.26363 35394 ft 396 kts 251°
2026-04-26 15:43 43.52358 132.22827 35280 ft 383 kts 251°
2026-04-26 15:43 43.50703 132.16112 35050 ft 357 kts 251°
2026-04-26 15:44 43.49914 132.12921 34944 ft 348 kts 251°
2026-04-26 15:44 43.48543 132.06557 34751 ft 348 kts 259°
2026-04-26 15:44 43.48296 132.03242 34617 ft 349 kts 267°
2026-04-26 15:45 43.49056 131.96632 34181 ft 355 kts 284°
2026-04-26 15:45 43.50093 131.93527 33899 ft 360 kts 293°
2026-04-26 15:46 43.53538 131.88373 33040 ft 380 kts 317°
2026-04-26 15:46 43.55927 131.86667 32584 ft 394 kts 331°
2026-04-26 15:46 43.58632 131.85768 32020 ft 406 kts 346°
2026-04-26 15:46 43.60522 131.85711 31505 ft 416 kts 358°
2026-04-26 15:47 43.64244 131.87197 30497 ft 429 kts 24°
2026-04-26 15:47 43.68746 131.92514 28742 ft 430 kts 62°
2026-04-26 15:47 43.69798 131.96301 27871 ft 419 kts 85°
2026-04-26 15:48 43.69884 132.00246 26986 ft 405 kts 104°
2026-04-26 15:48 43.69556 132.04085 26106 ft 403 kts 100°
2026-04-26 15:48 43.69411 132.07946 25231 ft 402 kts 97°
2026-04-26 15:48 43.69392 132.11801 24371 ft 401 kts 94°
2026-04-26 15:49 43.69422 132.15645 23532 ft 398 kts 98°
2026-04-26 15:49 43.68909 132.19330 22563 ft 387 kts 115°
2026-04-26 15:49 43.67740 132.22585 21625 ft 373 kts 133°
2026-04-26 15:49 43.66042 132.25187 20710 ft 358 kts 148°
2026-04-26 15:50 43.64000 132.27024 19827 ft 344 kts 163°
2026-04-26 15:50 43.61787 132.28093 18964 ft 331 kts 176°
2026-04-26 15:50 43.59542 132.28448 18094 ft 320 kts 188°
2026-04-26 15:50 43.57373 132.28116 17118 ft 309 kts 200°
2026-04-26 15:51 43.55391 132.27115 16207 ft 299 kts 214°
2026-04-26 15:51 43.53726 132.25475 15309 ft 291 kts 229°
2026-04-26 15:51 43.52489 132.23321 14440 ft 285 kts 243°
2026-04-26 15:51 43.51712 132.20831 13561 ft 281 kts 253°
2026-04-26 15:52 43.51125 132.18272 12609 ft 279 kts 254°
2026-04-26 15:52 43.50552 132.15771 11715 ft 276 kts 254°
2026-04-26 15:52 43.49952 132.13233 10830 ft 274 kts 254°
2026-04-26 15:52 43.49556 132.11591 10250 ft 273 kts 254°
2026-04-26 15:53 43.48887 132.08278 9063 ft 271 kts 265°
2026-04-26 15:53 43.49006 132.05718 8153 ft 269 kts 288°
2026-04-26 15:53 43.49889 132.03490 7426 ft 263 kts 313°
2026-04-26 15:53 43.51349 132.02152 7088 ft 247 kts 342°
2026-04-26 15:54 43.52988 132.02219 7010 ft 238 kts 20°
2026-04-26 15:54 43.54302 132.03650 6996 ft 248 kts 48°
2026-04-26 15:54 43.55206 132.05715 6991 ft 256 kts 65°
2026-04-26 15:54 43.55801 132.08044 6994 ft 260 kts 70°
2026-04-26 15:55 43.56363 132.10407 6991 ft 253 kts 69°
2026-04-26 15:55 43.56816 132.12626 7007 ft 233 kts 78°
2026-04-26 15:55 43.57004 132.14827 7001 ft 231 kts 83°
2026-04-26 15:55 43.56889 132.17045 6997 ft 234 kts 103°
2026-04-26 15:56 43.56186 132.19055 6999 ft 235 kts 131°
2026-04-26 15:56 43.54880 132.20366 7004 ft 233 kts 164°
2026-04-26 15:56 43.53303 132.20568 6996 ft 228 kts 197°
2026-04-26 15:56 43.51919 132.19647 6992 ft 219 kts 229°
2026-04-26 15:57 43.51082 132.17979 6997 ft 210 kts 254°
2026-04-26 15:57 43.50593 132.16082 6992 ft 211 kts 258°
2026-04-26 15:57 43.50144 132.14151 6992 ft 212 kts 258°
2026-04-26 15:57 43.49841 132.12869 6995 ft 212 kts 258°
2026-04-26 15:58 43.49218 132.10284 6994 ft 212 kts 258°
2026-04-26 15:58 43.48933 132.08323 6994 ft 206 kts 275°
2026-04-26 15:58 43.49247 132.06467 6998 ft 198 kts 301°
2026-04-26 15:58 43.50143 132.05069 6994 ft 197 kts 327°
2026-04-26 15:59 43.51420 132.04411 6990 ft 200 kts 353°
2026-04-26 15:59 43.52809 132.04668 6997 ft 207 kts 19°
2026-04-26 15:59 43.53979 132.05867 6995 ft 217 kts 49°
2026-04-26 15:59 43.54480 132.07074 7002 ft 222 kts 65°
2026-04-26 16:00 43.55001 132.09105 6991 ft 227 kts 69°
2026-04-26 16:00 43.55480 132.11185 6995 ft 228 kts 69°
2026-04-26 16:00 43.55968 132.13262 7003 ft 228 kts 69°
2026-04-26 16:00 43.56447 132.15344 6998 ft 229 kts 72°
2026-04-26 16:01 43.56528 132.17535 6998 ft 233 kts 101°
2026-04-26 16:01 43.55771 132.19473 7002 ft 233 kts 138°
2026-04-26 16:01 43.53857 132.20596 6997 ft 229 kts 184°
2026-04-26 16:01 43.52808 132.20357 7004 ft 224 kts 207°
2026-04-26 16:02 43.51580 132.19147 6994 ft 214 kts 239°
2026-04-26 16:02 43.50911 132.17368 6991 ft 209 kts 257°
2026-04-26 16:02 43.50450 132.15459 6989 ft 211 kts 258°
2026-04-26 16:02 43.50152 132.14179 6990 ft 212 kts 258°
2026-04-26 16:03 43.49537 132.11601 6992 ft 212 kts 258°
2026-04-26 16:03 43.49084 132.09673 6987 ft 211 kts 261°
2026-04-26 16:03 43.48959 132.07716 6997 ft 202 kts 283°
2026-04-26 16:03 43.49469 132.05971 6996 ft 196 kts 309°
2026-04-26 16:04 43.50504 132.04779 6999 ft 197 kts 335°
2026-04-26 16:04 43.51842 132.04387 6991 ft 201 kts
2026-04-26 16:04 43.53200 132.04932 6995 ft 209 kts 28°
2026-04-26 16:04 43.54234 132.06383 6993 ft 219 kts 58°
2026-04-26 16:05 43.54822 132.08350 6997 ft 225 kts 69°
2026-04-26 16:05 43.55296 132.10388 6993 ft 227 kts 69°
2026-04-26 16:05 43.55780 132.12466 6999 ft 228 kts 69°
2026-04-26 16:05 43.56273 132.14537 6996 ft 227 kts 69°
2026-04-26 16:06 43.56588 132.16677 6991 ft 231 kts 88°
2026-04-26 16:06 43.56166 132.18792 7004 ft 233 kts 123°
2026-04-26 16:06 43.54970 132.20243 7007 ft 231 kts 160°
2026-04-26 16:06 43.53412 132.20566 7000 ft 227 kts 194°
2026-04-26 16:07 43.52005 132.19734 6997 ft 218 kts 227°
2026-04-26 16:07 43.51129 132.18113 6999 ft 209 kts 253°
2026-04-26 16:07 43.50631 132.16232 6993 ft 210 kts 258°
2026-04-26 16:07 43.50184 132.14313 6990 ft 211 kts 258°
2026-04-26 16:08 43.49727 132.12391 6990 ft 211 kts 258°
2026-04-26 16:08 43.49262 132.10469 6993 ft 211 kts 258°
2026-04-26 16:08 43.48938 132.08521 6991 ft 205 kts 272°
2026-04-26 16:08 43.49184 132.06647 6995 ft 197 kts 298°
2026-04-26 16:09 43.50021 132.05194 6994 ft 195 kts 324°
2026-04-26 16:09 43.51260 132.04444 6994 ft 198 kts 349°
2026-04-26 16:09 43.52646 132.04586 6994 ft 205 kts 16°
2026-04-26 16:09 43.53856 132.05667 6997 ft 215 kts 45°
2026-04-26 16:10 43.54600 132.07482 7003 ft 222 kts 67°
2026-04-26 16:10 43.55098 132.09525 6993 ft 226 kts 69°
2026-04-26 16:10 43.55575 132.11596 6995 ft 227 kts 69°
2026-04-26 16:10 43.56065 132.13667 7002 ft 227 kts 69°
2026-04-26 16:11 43.56515 132.15752 6994 ft 228 kts 76°
2026-04-26 16:11 43.56454 132.17931 6995 ft 232 kts 108°
2026-04-26 16:11 43.55554 132.19741 7006 ft 232 kts 144°
2026-04-26 16:11 43.54090 132.20575 7004 ft 229 kts 179°
2026-04-26 16:12 43.52562 132.20215 6996 ft 222 kts 212°
2026-04-26 16:12 43.51431 132.18874 6996 ft 212 kts 244°
2026-04-26 16:12 43.50377 132.15149 6989 ft 210 kts 258°
2026-04-26 16:13 43.49926 132.13230 6995 ft 211 kts 258°
2026-04-26 16:13 43.49465 132.11313 6991 ft 211 kts 258°
2026-04-26 16:13 43.49031 132.09389 6992 ft 209 kts 263°
2026-04-26 16:13 43.48991 132.07452 6992 ft 200 kts 287°
2026-04-26 16:14 43.49582 132.05772 6996 ft 195 kts 313°
2026-04-26 16:14 43.50666 132.04679 6993 ft 196 kts 338°
2026-04-26 16:14 43.53332 132.05047 6996 ft 209 kts 31°
2026-04-26 16:15 43.54309 132.06570 6995 ft 219 kts 60°
2026-04-26 16:15 43.54871 132.08549 6997 ft 225 kts 69°
2026-04-26 16:15 43.55347 132.10607 6989 ft 226 kts 69°
2026-04-26 16:16 43.56319 132.14735 6996 ft 226 kts 69°
2026-04-26 16:16 43.56587 132.16878 6992 ft 230 kts 91°
2026-04-26 16:16 43.56090 132.18954 7000 ft 232 kts 127°
2026-04-26 16:16 43.54847 132.20315 6995 ft 230 kts 163°
2026-04-26 16:17 43.53290 132.20537 6995 ft 225 kts 196°
2026-04-26 16:17 43.51919 132.19632 6992 ft 217 kts 229°
2026-04-26 16:17 43.51087 132.17984 6996 ft 208 kts 254°
2026-04-26 16:17 43.50601 132.16106 6994 ft 209 kts 258°
2026-04-26 16:18 43.50154 132.14192 6987 ft 210 kts 258°
2026-04-26 16:18 43.49237 132.10370 6991 ft 210 kts 258°
2026-04-26 16:19 43.49205 132.06578 6997 ft 196 kts 300°
2026-04-26 16:19 43.50044 132.05166 6996 ft 194 kts 324°
2026-04-26 16:19 43.52217 132.04439 6995 ft 202 kts
2026-04-26 16:20 43.53876 132.05698 6992 ft 214 kts 45°
2026-04-26 16:20 43.55095 132.09518 6992 ft 225 kts 69°
2026-04-26 16:20 43.55572 132.11583 6994 ft 226 kts 69°
2026-04-26 16:21 43.56058 132.13639 6998 ft 226 kts 69°
2026-04-26 16:21 43.56510 132.15713 6994 ft 227 kts 76°
2026-04-26 16:21 43.56466 132.17884 6993 ft 231 kts 107°
2026-04-26 16:21 43.55587 132.19706 6999 ft 231 kts 143°
2026-04-26 16:22 43.54142 132.20567 6994 ft 228 kts 178°
2026-04-26 16:22 43.52613 132.20248 6996 ft 221 kts 211°
2026-04-26 16:22 43.51465 132.18943 6995 ft 211 kts 243°
2026-04-26 16:22 43.50852 132.17142 6992 ft 207 kts 257°
2026-04-26 16:23 43.50402 132.15246 6990 ft 209 kts 258°
2026-04-26 16:23 43.49953 132.13337 6998 ft 210 kts 258°
2026-04-26 16:23 43.49494 132.11430 6994 ft 210 kts 258°
2026-04-26 16:23 43.49053 132.09517 6991 ft 208 kts 262°
2026-04-26 16:24 43.48973 132.07585 6994 ft 199 kts 285°
2026-04-26 16:24 43.49517 132.05883 6993 ft 194 kts 311°
2026-04-26 16:24 43.50565 132.04740 6994 ft 195 kts 336°
2026-04-26 16:24 43.51898 132.04391 6990 ft 200 kts
2026-04-26 16:25 43.53236 132.04962 6990 ft 208 kts 28°
2026-04-26 16:25 43.54248 132.06417 6994 ft 217 kts 58°
2026-04-26 16:25 43.54826 132.08367 6998 ft 223 kts 69°
2026-04-26 16:25 43.55302 132.10419 6991 ft 225 kts 69°
2026-04-26 16:26 43.55781 132.12476 6999 ft 225 kts 69°
2026-04-26 16:26 43.56105 132.13834 7000 ft 225 kts 69°
2026-04-26 16:26 43.56589 132.16641 6991 ft 228 kts 87°
2026-04-26 16:26 43.56190 132.18744 6994 ft 231 kts 122°
2026-04-26 16:27 43.55020 132.20211 7002 ft 230 kts 159°
2026-04-26 16:27 43.53482 132.20574 6992 ft 225 kts 192°
2026-04-26 16:27 43.52083 132.19813 6993 ft 217 kts 225°
2026-04-26 16:27 43.51174 132.18245 6998 ft 207 kts 252°
2026-04-26 16:28 43.50671 132.16394 6995 ft 208 kts 258°
2026-04-26 16:28 43.50227 132.14493 6985 ft 209 kts 258°
2026-04-26 16:28 43.49775 132.12591 6995 ft 209 kts 258°
2026-04-26 16:28 43.49220 132.10723 6969 ft 212 kts 251°
2026-04-26 16:29 43.48570 132.08905 6910 ft 212 kts 250°
2026-04-26 16:29 43.47897 132.07104 6849 ft 211 kts 247°
2026-04-26 16:29 43.47188 132.05339 6792 ft 211 kts 246°
2026-04-26 16:29 43.46479 132.03575 6732 ft 210 kts 246°
2026-04-26 16:30 43.45778 132.01824 6657 ft 206 kts 246°
2026-04-26 16:30 43.45095 132.00113 6481 ft 203 kts 247°
2026-04-26 16:30 43.44417 131.98405 6186 ft 204 kts 247°
2026-04-26 16:30 43.43740 131.96694 5870 ft 204 kts 247°
2026-04-26 16:31 43.43059 131.94980 5587 ft 204 kts 246°
2026-04-26 16:31 43.42379 131.93271 5305 ft 204 kts 246°
2026-04-26 16:31 43.41701 131.91571 5094 ft 199 kts 246°
2026-04-26 16:31 43.40989 131.90010 5014 ft 188 kts 237°
2026-04-26 16:32 43.40055 131.88820 4895 ft 179 kts 218°
2026-04-26 16:32 43.39330 131.88310 4719 ft 176 kts 204°
2026-04-26 16:32 43.37735 131.88070 4302 ft 171 kts 167°
2026-04-26 16:32 43.36643 131.88604 4058 ft 164 kts 155°
2026-04-26 16:33 43.35621 131.89274 3726 ft 163 kts 151°
2026-04-26 16:33 43.34620 131.89985 3416 ft 161 kts 149°
2026-04-26 16:33 43.33664 131.90689 3299 ft 151 kts 149°
2026-04-26 16:33 43.32752 131.91402 3304 ft 152 kts 144°
2026-04-26 16:34 43.32001 131.92408 3298 ft 150 kts 119°
2026-04-26 16:34 43.31636 131.93709 3295 ft 145 kts 93°
2026-04-26 16:34 43.31692 131.95057 3147 ft 140 kts 69°
2026-04-26 16:34 43.32099 131.96235 2928 ft 135 kts 54°
2026-04-26 16:35 43.32581 131.97336 2717 ft 135 kts 56°
2026-04-26 16:35 43.33031 131.98462 2515 ft 134 kts 57°
2026-04-26 16:35 43.33477 131.99577 2330 ft 133 kts 57°
2026-04-26 16:35 43.33925 132.00682 2147 ft 132 kts 57°
2026-04-26 16:36 43.34371 132.01786 1952 ft 132 kts 57°
2026-04-26 16:36 43.34815 132.02886 1782 ft 131 kts 57°
2026-04-26 16:36 43.35259 132.03984 1590 ft 132 kts 57°
2026-04-26 16:36 43.35703 132.05081 1412 ft 132 kts 58°
2026-04-26 16:37 43.36146 132.06181 1222 ft 131 kts 58°
2026-04-26 16:37 43.36593 132.07283 1035 ft 132 kts 59°
2026-04-26 16:37 43.37057 132.08380 841 ft 133 kts 57°
2026-04-26 16:37 43.37376 132.09098 727 ft 133 kts 57°
2026-04-26 16:38 43.37929 132.10631 521 ft 135 kts 69°
2026-04-26 16:38 43.38372 132.11762 311 ft 134 kts 51°
2026-04-26 16:38 43.38833 132.12862 154 ft 132 kts 58°
2026-04-26 16:38 43.39307 132.13951 88 ft 131 kts 62°
2026-04-26 16:39 43.39660 132.14851 54 ft 57 kts 61°
2026-04-26 16:39 43.39741 132.15041 55 ft 0 kts 60°
2026-04-26 16:40 43.39742 132.15041 55 ft 0 kts 60°
2026-04-26 16:40 43.39764 132.15103 56 ft 13 kts 63°
2026-04-26 16:40 43.39807 132.15222 53 ft 15 kts 64°
2026-04-26 16:40 43.39814 132.15244 54 ft 0 kts 64°
2026-04-26 16:42 43.39817 132.15254 62 ft 9 kts 66°
2026-04-26 16:42 43.39967 132.15631 57 ft 67 kts 59°
2026-04-26 16:42 43.40185 132.16181 52 ft 64 kts 62°
2026-04-26 16:42 43.40338 132.16558 55 ft 39 kts 61°
2026-04-26 16:43 43.40402 132.16812 60 ft 14 kts 103°
2026-04-26 16:43 43.40349 132.16903 52 ft 0 kts 147°
2026-04-26 16:45 43.40334 132.16916 52 ft 16 kts 148°
2026-04-26 16:45 43.40296 132.16945 53 ft 0 kts 153°
2026-04-26 16:45 43.40292 132.16948 55 ft 7 kts 153°
2026-04-26 16:46 43.40167 132.16955 56 ft 16 kts 239°
2026-04-26 16:46 43.40149 132.16907 54 ft 0 kts 244°